Find Starlink 3909

NORAD ID: 52452 Int'l Des: 2022-049 Owner: SPXS Country: US Constellation: starlink operational
LEOCIRCULAR

当前视图

正在加载3D地球...

About Starlink 3909

Starlink 3909 (NORAD 52452) is a starlink constellation satellite (v1.5) launched May 6, 2022 by SPXS of US. It operates in LEO, CIRCULAR orbit with a mass of 297.00 kg.

关于 Starlink 3909

正在加载描述...

即将过境

Passes for default location (London). Set your location on the main map for personalized predictions.

高度历史

Loading altitude history...

两行轨道根数

1 52452U 22049B 26168.74545727 .00000624 00000-0 57293-4 0 9991
2 52452 53.1609 339.7250 0001325 90.3898 269.7245 15.08835725227214
Epoch: Jun 17, 2026 • Age: 8 hours

当前状态

高度 545.4 km
速度 7.60 km/s
星下点 53.18°N, 133.64°E
发射日期 May 6, 2022
运行时间 4.1 years
类型 internet

技术详情

分类 Payload
质量 297.00 kg
干质量 220.00 kg
总质量 297.00 kg
长度 0.20 m
直径 2.80 m
跨度 9.00 m
形状 Box + pan
制造商 SPXS
平台类型 Starlink
阶段状态 In Orbit
所有者/国家 SPXS/US

Most Searched